• MPC Preparation (Info)

  • MPEC 2016-O269: 2015 FN345

    The following Minor Planet Electronic Circular may be linked-to from your own Web pages, but must not otherwise be redistributed electronically.

    A form allowing access to any MPEC is at the bottom of this page.


    Read MPEC 2016-O268 Read MPEC 2016-O270


    M.P.E.C. 2016-O269                               Issued 2016 July 18, 01:17 UT
    
         The Minor Planet Electronic Circulars contain information on unusual
             minor planets and routine data on comets.  They are published
        on behalf of Division F of the International Astronomical Union by the
              Minor Planet Center, Smithsonian Astrophysical Observatory,
                              Cambridge, MA 02138, U.S.A.
    
                 Prepared using the Tamkin Foundation Computer Network
    
                                  MPC@CFA.HARVARD.EDU
                URL https://www.minorplanetcenter.net/    ISSN 1523-6714
    
                                      2015 FN345
    
    Observations:
         K15FY5N  C2012 05 14.35828 15 37 27.818+06 09 45.90         22.2 wLEO269F51
         K15FY5N  C2012 05 14.37086 15 37 27.750+06 09 46.23         22.1 wLEO269F51
         K15FY5N  C2012 05 14.38346 15 37 27.697+06 09 46.61         22.2 wLEO269F51
         K15FY5N  C2012 05 14.39615 15 37 27.633+06 09 46.83         22.4 wLEO269F51
         K15FY5N  C2014 05 04.40538 15 50 33.316+06 04 01.17         22.2 wLEO269F51
         K15FY5N  C2014 05 04.41737 15 50 33.259+06 04 01.39         22.2 wLEO269F51
         K15FY5N  C2014 05 04.42938 15 50 33.217+06 04 01.62         22.5 wLEO269F51
         K15FY5N  C2014 05 04.44144 15 50 33.143+06 04 01.97         21.9 wLEO269F51
         K15FY5N  C2014 05 28.33396 15 48 36.198+06 12 17.10         22.0 wLEO269F51
         K15FY5N  C2014 05 28.34618 15 48 36.141+06 12 17.32         22.1 wLEO269F51
         K15FY5N  C2014 05 28.35833 15 48 36.085+06 12 17.07         22.1 wLEO269F51
         K15FY5N  C2014 05 28.37049 15 48 36.027+06 12 17.48         22.0 wLEO269F51
         K15FY5N* C2015 03 25.54760 15 59 07.824+05 37 55.26         22.3 wLEO269F51
         K15FY5N  C2015 03 25.56001 15 59 07.794+05 37 55.83         22.4 wLEO269F51
         K15FY5N  C2015 03 25.57241 15 59 07.761+05 37 56.33         22.3 wLEO269F51
         K15FY5N  C2015 03 25.60423 15 59 07.706+05 37 57.56         22.6 wLEO269F51
         K15FY5N  C2015 03 25.61575 15 59 07.674+05 37 58.22         22.2 wLEO269F51
         K15FY5N  C2015 04 04.47396 15 58 42.338+05 44 53.38         22.0 wLEO269F51
         K15FY5N  C2015 04 04.48593 15 58 42.267+05 44 53.87         22.1 wLEO269F51
         K15FY5N  C2015 04 04.49794 15 58 42.263+05 44 54.30         22.0 wLEO269F51
         K15FY5N  C2015 04 04.50995 15 58 42.202+05 44 55.37         21.9 wLEO269F51
         K15FY5N  C2015 04 12.40813 15 58 16.362+05 50 11.37         22.0 wLEO269F51
         K15FY5N  C2015 04 12.44618 15 58 16.221+05 50 12.66         21.9 wLEO269F51
         K15FY5N  C2015 04 12.44749 15 58 16.220+05 50 12.84         22.3 wLEO269F51
         K15FY5N  C2015 04 12.45835 15 58 16.163+05 50 13.39         22.0 wLEO269F51
         K15FY5N  C2015 04 12.45967 15 58 16.156+05 50 13.67         22.1 wLEO269F51
         K15FY5N  C2015 04 12.47054 15 58 16.129+05 50 13.88         21.9 wLEO269F51
         K15FY5N  C2015 04 12.47188 15 58 16.114+05 50 13.82         21.9 wLEO269F51
         K15FY5N  C2015 05 14.46794 15 55 55.970+06 07 02.20         21.7 wLEO269F51
         K15FY5N  C2015 05 14.48104 15 55 55.903+06 07 02.59         21.8 wLEO269F51
         K15FY5N  C2015 05 14.49445 15 55 55.833+06 07 02.89         21.9 wLEO269F51
         K15FY5N  C2015 05 14.50767 15 55 55.767+06 07 03.14         22.3 wLEO269F51
         K15FY5N  C2015 07 09.30522 15 51 50.016+06 09 28.47         22.1 wLEO269F51
         K15FY5N  C2015 07 09.31781 15 51 49.975+06 09 28.22         22.3 wLEO269F51
         K15FY5N  C2015 07 09.33042 15 51 49.949+06 09 27.80         22.2 wLEO269F51
         K15FY5N  C2015 07 09.34208 15 51 49.904+06 09 27.73         22.2 wLEO269F51
    
    Observer details:
    F51 Pan-STARRS 1, Haleakala.  Observers B. Gibson, T. Goggia, N. Primak,
        A. Schultz, M. Willman.  Measurers K. Chambers, S. Chastel, Y.-T. Chen,
        L. Denneau, H. Flewelling, M. Holman, M. Huber, R. Jedicke, M. Lackner,
        E. Lilly, H.-W. Lin, E. Magnier, M. Micheli, M. Payne, P. Veres,
        R. Wainscoat, C. Waters, R. Weryk.  1.8-m Ritchey-Chretien + CCD.
    
    Orbital elements:
    2015 FN345
    Epoch 2016 July 31.0 TT = JDT 2457600.5                 MPC
    M 318.81178              (2000.0)            P               Q
    n   0.00361160     Peri.  116.46581     +0.33746901     +0.93930637
    a  42.0729840      Node   172.42153     -0.94002898     +0.33281458
    e   0.0952711      Incl.   27.93900     +0.04960028     -0.08329468
    P 273              H    6.0           G   0.15           U   3
    Residuals in seconds of arc
    120514 F51  0.0   0.1-    150325 F51  0.0   0.1-    150412 F51  0.2-  0.1+
    120514 F51  0.1-  0.1-    150325 F51  0.0   0.0     150412 F51  0.2-  0.3+
    120514 F51  0.1+  0.0     150325 F51  0.1-  0.1-    150412 F51  0.0   0.1+
    120514 F51  0.0   0.0     150325 F51  0.1+  0.2-    150412 F51  0.2-  0.0
    140504 F51  0.1-  0.2+    150325 F51  0.0   0.0     150514 F51  0.0   0.2-
    140504 F51  0.1-  0.1+    150404 F51  0.3+  0.0     150514 F51  0.0   0.1-
    140504 F51  0.2+  0.0     150404 F51  0.2-  0.0     150514 F51  0.0   0.1-
    140504 F51  0.1-  0.0     150404 F51  0.3+  0.1-    150514 F51  0.0   0.2-
    140528 F51  0.1-  0.1+    150404 F51  0.1-  0.5+    150709 F51  0.1-  0.1+
    140528 F51  0.0   0.2+    150412 F51  0.1+  0.0     150709 F51  0.1-  0.1+
    140528 F51  0.0   0.2-    150412 F51  0.0   0.2-    150709 F51  0.1+  0.1-
    140528 F51  0.1+  0.1+    150412 F51  0.1+  0.0     150709 F51  0.0   0.0
    
    Ephemeris:
    2015 FN345               a,e,i = 42.07, 0.10, 28                 q = 38.065
    Date    TT    R. A. (2000) Decl.     Delta      r     Elong.  Phase     V
    2016 06 18    15 59 17.2 +06 11 44  38.4609 39.2495   140.4     0.9    22.0
    ...
    2016 07 03    15 58 17.1 +06 09 43  38.5971 39.2466   129.1     1.2    22.1
    ...
    2016 07 11    15 57 50.8 +06 07 33  38.6873 39.2451   122.6     1.2    22.1
    ...
    2016 07 17    15 57 34.2 +06 05 27  38.7616 39.2439   117.7     1.3    22.1
    2016 07 18    15 57 31.7 +06 05 04  38.7744 39.2437   116.8     1.3    22.1
    2016 07 19    15 57 29.3 +06 04 41  38.7874 39.2436   116.0     1.3    22.1
    ...
    2016 07 25    15 57 16.7 +06 02 06  38.8680 39.2424   110.9     1.4    22.1
    ...
    2016 08 02    15 57 04.8 +05 58 10  38.9810 39.2409   104.1     1.4    22.1
    ...
    2016 08 17    15 56 59.0 +05 49 28  39.2036 39.2380    91.2     1.5    22.1
    
    A. U. Tomatic                (C) Copyright 2016 MPC           M.P.E.C. 2016-O269
    

    Read MPEC 2016-O268 Read MPEC 2016-O270


    MPEC number:

    Enter an MPEC number in one of the following forms:

    • 1997-B01 (the full form)
    • J97B01 (the packed version of the full form)
    • B01 (the abbreviated form)